Location: Potawatomi Wildlife Park
(41.2308°N, 86.1050°W)
Time: 12:08:15
(UTC-04:00)

Daily predictions for brighter satellites

Satellite Brightness Start Highest point End
(mag) Time Altitude Azimuth Time Altitude Azimuth Time Altitude Azimuth
ATLAS CENTAUR R/B 3.0 20:48:13 10° SW 20:53:07 50° NW 20:57:56 10° NNE
Cosmos 1544 Rocket 3.9 20:51:16 10° SSE 20:55:24 43° E 20:59:34 10° NNE
Okean 1 Rocket 4.4 20:52:26 10° SSW 20:56:38 45° WNW 21:00:49 10° N
Cosmos 968 Rocket 3.8 20:57:43 10° NNW 21:02:51 72° WSW 21:07:55 10° S
FengYun 1-2 T 4.4 20:58:13 10° SSE 21:03:52 86° WSW 21:09:31 10° NNW
CZ-2D R/B 3.3 21:01:42 10° SSE 21:05:30 60° ENE 21:09:20 10° N
NOSS 2-1 (D) 3.3 21:04:35 10° SSW 21:08:26 84° ESE 21:12:48 10° NE
Hubble Space Telescope 3.0 21:07:14 10° SW 21:09:14 13° S 21:11:13 10° SSE
NOSS 2-1 (C) 3.3 21:05:36 10° SSW 21:09:27 84° SE 21:13:50 10° NE
ERS-1 Rocket 3.9 21:08:00 10° SE 21:12:21 30° ENE 21:16:42 10° N
Cosmos 1821 Rocket 3.9 21:07:17 10° S 21:13:23 80° E 21:19:29 10° N
Cosmos 1605 Rocket 4.3 21:10:14 10° SSE 21:16:18 49° E 21:22:18 10° NNE
Cosmos 1633 3.6 21:12:44 10° SSW 21:16:19 51° W 21:19:53 10° N
Cosmos 1536 3.6 21:12:34 10° SSW 21:16:29 57° W 21:20:27 10° N
Cosmos 1346 Rocket 2.9 21:13:14 10° N 21:17:06 52° ENE 21:20:58 10° SSE
Meteor 2-16 Rocket 4.4 21:15:16 10° S 21:21:19 75° E 21:27:23 10° NNE
NOSS 2-1 (E) 3.7 21:21:34 10° SW 21:25:27 73° NW 21:29:57 10° NNE
Cosmos 2227 Rocket 2.4 21:21:53 10° NNW 21:27:29 57° ENE 21:32:24 13° SE
Meteor 1-5 Rocket 4.1 21:27:34 10° S 21:32:53 89° W 21:38:21 10° N
ALOS 2.8 21:28:25 10° S 21:33:02 61° W 21:37:41 10° NNW
FENGYUN 3A 4.0 21:28:26 10° S 21:33:45 68° WSW 21:39:06 10° NNW
Cosmos 1500 4.3 21:34:20 20° ESE 21:35:38 24° E 21:38:42 10° NE
BREEZE-M DEB (TANK) 4.5 21:18:35 10° SW 21:37:44 56° SSE 21:42:53 10° ENE
Cosmos 2082 3.7 21:34:31 10° NNW 21:40:08 67° ENE 21:44:33 17° SE
Cosmos 1656 4.2 21:35:17 10° S 21:40:23 37° ESE 21:45:27 10° NE
Cosmos 2297 Rocket 2.4 21:37:46 10° NNW 21:43:21 55° ENE 21:47:09 20° SE
Cosmos 2123 Rocket 4.0 21:38:32 10° N 21:44:44 85° W 21:50:54 10° S
USA 215 4.4 21:42:02 11° E 21:47:34 33° NNE 21:53:14 10° NW
Lacrosse 5 3.3 21:44:10 10° NNW 21:48:31 27° NNE 21:51:36 16° ENE
H-2A R/B 2.7 21:49:24 26° ESE 21:50:52 34° ENE 21:54:36 10° N
Cosmos 2208 Rocket 4.3 21:45:43 10° SSW 21:51:00 75° WNW 21:56:26 10° NNE
SPOT 5 3.7 21:52:31 24° ESE 21:54:47 36° ENE 21:59:14 10° N
deb Chang Zheng 4 4.1 21:51:01 10° NNE 21:55:11 37° E 21:57:05 25° SSE
Cosmos 1626 Rocket 3.4 21:50:53 10° N 21:55:20 76° E 21:58:22 19° SSE
Cosmos 1515 3.8 21:53:57 10° N 21:57:44 54° E 21:59:10 33° SE
Cosmos 2298 Rocket 4.4 21:53:16 10° N 21:58:26 49° ENE 22:00:55 28° SE
Cosmos 1455 Rocket 4.1 21:55:18 10° SSW 21:59:28 47° W 22:03:42 10° N
Cosmos 1975 2.8 21:56:17 10° S 22:00:22 84° E 22:04:31 10° N
BREEZE-M DEB (TANK) 4.4 21:56:10 10° SW 22:00:30 87° SE 22:17:29 10° ENE
Cosmos 1459 Rocket 4.2 21:59:01 19° SSE 22:02:57 45° E 22:08:40 10° NNE
Cosmos 1602 Rocket 3.5 21:58:47 10° N 22:03:17 88° WSW 22:06:22 20° S
NOSS 3-4 (A) 4.1 21:57:57 10° NW 22:04:55 64° WSW 22:10:47 17° SSE
NOSS 3-4 (C) 4.1 21:58:03 10° NW 22:05:02 65° WSW 22:10:52 17° SSE
Cosmos 1743 3.7 22:06:26 30° ENE 22:06:26 30° ENE 22:09:27 10° NNE
H-2A R/B 3.8 22:10:13 14° ENE 22:10:39 15° ENE 22:13:18 10° NNE
Cosmos 1153 Rocket 4.4 22:05:31 10° S 22:11:44 89° W 22:17:56 10° N
YAOGAN 6 3.5 22:12:12 33° ENE 22:12:12 33° ENE 22:15:26 10° N
Cosmos 1461 3.1 22:08:11 10° NW 22:12:12 59° WSW 22:13:43 34° S
Lacrosse 5 rocket 0.9 22:09:02 10° NW 22:12:45 75° NE 22:13:22 57° ESE
Cosmos 1066 Rocket 4.2 22:07:30 10° N 22:13:07 67° ENE 22:16:06 29° SSE
Envisat 2.9 22:11:14 25° SSE 22:14:17 87° ENE 22:19:24 10° NNW
CZ-4 DEB 4.0 22:14:51 23° SSW 22:16:23 38° W 22:19:22 10° NNW
Tiangong 1 1.2 22:13:32 10° W 22:16:36 62° N 22:16:48 60° NNE
MetOp-A 4.3 22:15:54 35° SE 22:17:52 55° ENE 22:23:05 10° N
Cosmos 1937 Rocket 3.8 22:14:31 10° N 22:19:38 49° ENE 22:21:02 39° ESE
Cosmos 1697 Rocket 2.6 22:17:20 10° S 22:22:53 62° ESE 22:28:28 10° NNE
Cosmos 1802 Rocket 4.1 22:20:59 27° SSE 22:24:28 58° E 22:30:45 10° NNE
OTV 4 2.3 22:22:16 10° WSW 22:23:53 23° SW 22:23:53 23° SW
Cosmos 2150 Rocket 3.9 22:20:33 10° NNW 22:25:43 74° ENE 22:27:16 45° SE
DELTA 2 R/B (1) 3.6 22:22:46 10° W 22:28:17 67° SSW 22:29:48 46° SE
SPOT 1/Viking Rocket 4.0 22:28:06 40° E 22:29:00 44° ENE 22:33:57 10° N
Cosmos 1939 Rocket 3.6 22:28:30 27° SSW 22:30:25 51° W 22:34:30 10° NNW
ASTEX 1 3.4 22:27:24 10° NNE 22:32:21 57° E 22:33:04 52° SE
Cosmos 2084 3.3 22:29:06 10° NNW 22:33:09 66° NE 22:33:22 64° ENE
Iridium 4 Rocket 4.4 22:30:29 10° NNW 22:35:26 45° W 22:39:24 13° SSW
Cosmos 990 Rocket 4.2 22:32:00 10° N 22:37:09 51° ENE 22:37:48 48° E
Cosmos 1606 Rocket 3.8 22:38:13 52° ENE 22:38:13 52° ENE 22:42:04 10° NNE
Terra 3.5 22:40:15 20° NE 22:40:15 20° NE 22:43:12 10° NNE
OAO 2 Rocket 4.1 22:39:02 10° WSW 22:42:57 37° SSW 22:42:57 37° SSW
Cosmos 1980 Rocket 2.2 22:44:07 55° SE 22:44:32 57° ESE 22:50:06 10° NNE
CZ-4B R/B 4.1 22:40:40 10° NNE 22:44:01 37° ENE 22:44:01 37° ENE
Cosmos 2016 Rocket 3.8 22:43:28 43° SSE 22:45:31 71° E 22:51:40 10° NNE
ARGOS 3.1 22:49:32 59° ESE 22:50:07 64° ENE 22:55:27 10° N
ERS-1 Rocket 4.5 22:47:32 15° SSW 22:51:02 31° W 22:55:31 10° NW
Cosmos 1898 Rocket 3.9 22:48:19 10° NNW 22:53:33 60° WSW 22:54:53 45° SSW
Meteor 1-21 4.2 22:49:57 10° N 22:55:45 87° E 22:56:53 60° SSE
Cosmos 2173 Rocket 4.3 22:53:55 19° SSW 22:58:35 68° W 23:04:56 10° N
Cosmos 1125 Rocket 4.5 22:54:57 10° N 22:59:15 33° NE 22:59:15 33° NE
RESURS DK-1 2.8 22:55:50 10° NNW 22:59:18 61° NNW 22:59:18 61° NNW
Cosmos 1726 Rocket 4.0 23:03:16 57° N 23:03:16 57° N 23:06:49 10° N
Cosmos 1763 Rocket 3.6 23:04:53 61° NE 23:04:53 61° NE 23:09:09 10° NNE
Cosmos 2061 Rocket 4.4 23:00:39 19° SSW 23:05:15 61° W 23:11:29 10° N
SL-19 R/B 4.1 23:02:17 10° NNE 23:07:51 83° WNW 23:08:45 63° SSW
Cosmos 2227 Rocket 4.3 23:07:02 10° NW 23:11:02 20° W 23:14:15 13° SW
Tsikada Rocket 3.9 23:05:35 10° N 23:12:01 72° E 23:12:34 68° ESE
Cosmos 1864 Rocket 4.3 23:12:32 73° SE 23:12:52 76° E 23:19:00 10° N
Cosmos 2263 Rocket 3.7 23:10:26 10° N 23:14:41 23° NE 23:14:41 23° NE
Cosmos 2322 Rocket 3.9 23:18:34 21° NE 23:18:34 21° NE 23:20:31 10° NE
Cosmos 1825 Rocket 4.5 23:11:11 10° NNW 23:15:23 43° W 23:15:24 43° W
Cosmos 967 Rocket 4.3 23:11:29 10° NNW 23:17:51 80° ENE 23:18:16 76° ESE
Cosmos 2360 4.4 23:19:45 61° NE 23:19:45 61° NE 23:24:31 10° NNE
Cosmos 1953 Rocket 4.5 23:19:25 10° NNW 23:23:10 46° WNW 23:23:10 46° WNW
Cosmos 841 Rocket 3.7 23:24:39 64° N 23:24:39 64° N 23:29:06 10° NNE
Meteor 2-9 Rocket 4.1 23:24:45 79° NNW 23:24:45 79° NNW 23:29:54 10° N
Milstar 3 Cent rocket 4.2 23:09:55 10° W 23:25:02 39° SSW 23:26:28 38° S
Cosmos 2297 Rocket 4.1 23:22:49 10° NW 23:26:55 21° W 23:28:59 17° SW
H-2A R/B 4.2 23:26:32 18° WSW 23:26:59 19° W 23:29:54 10° NW
Cosmos 2227 4.2 23:22:36 10° NNW 23:28:06 79° WNW 23:28:06 79° WNW
USA 215 3.1 23:29:23 74° ESE 23:30:01 83° NE 23:36:36 10° NW
Lacrosse 5 2.5 23:26:50 10° NW 23:30:48 52° WNW 23:30:48 52° WNW
BREEZE-M TANK 4.5 23:35:32 10° WNW 23:38:58 25° W 23:38:58 25° W
Cosmos 1816 Rocket 4.4 23:34:27 10° N 23:40:43 85° NW 23:40:43 85° NW
Cosmos 1725 Rocket 4.2 23:42:15 58° WSW 23:42:58 62° W 23:49:10 10° N
H-2A R/B 2.8 23:50:52 47° NW 23:50:52 47° NW 23:54:28 10° NNW
